Flag for Ireland Weather past 2 weeks in Galway, Ireland

Now
46 °F

Overcast.


Feels Like: 42 °F
Forecast: N/A
Wind: 9 mph from Southwest

Location: Shannon Airport

Current Time: Dec 20, 2014 at 10:04:33 PM

Latest Report: Dec 20, 2014 at 9:30 PM


Visibility: N/A

Pressure: 30.39 "Hg

Humidity: 82%

Dew point: 41 °F

Location of GalwayLocation

Historic Weather in Galway — Graph

°F

Galway temperature yesterday

Maximum temperature yesterday: 48 °F (at 1:30 PM)
Minimum temperature yesterday: 43 °F (at 5:30 AM)
Average temperature yesterday: 45 °F

Past Weeks' High & Low Weather Summary

 TemperatureHumidityPressure
High55 °F (Dec 18, 9:00 AM)100% (Dec 6, 12:30 PM)30.42 "Hg (Dec 6, 12:30 PM)
Low32 °F (Dec 12, 7:00 AM)49% (Dec 10, 7:00 AM)29.27 "Hg (Dec 12, 1:30 AM)
Average45 °F87%29.94 "Hg
* Reported Dec 5 9:00 PM — Dec 20 9:00 PM, Galway, Weather by CustomWeather, © 2014

Note: Actual official high and low records may vary slightly from our data, if they occured in-between our weather recording intervals... More about our weather records

Advertising

Galway weather history for previous 24 hours

 ConditionsComfort  
Time TempWeatherWind HumidityBarometerVisibility
9:00 PM
Dec 20
46 °FOvercast.9 mph82%30.39 "HgN/A
8:30 PM46 °FPassing clouds.9 mph82%30.39 "HgN/A
8:00 PM46 °FPassing clouds.8 mph82%30.39 "HgN/A
7:30 PM46 °FPartly cloudy.13 mph82%30.39 "HgN/A
7:00 PM46 °FPassing clouds.10 mph87%30.39 "HgN/A
6:30 PM46 °FPassing clouds.14 mph87%30.39 "HgN/A
6:00 PM46 °FPartly cloudy.8 mph87%30.39 "HgN/A
5:30 PM46 °FPartly cloudy.10 mph87%30.39 "HgN/A
5:00 PM46 °FPartly cloudy.9 mph87%30.39 "HgN/A
4:30 PM46 °FPartly cloudy.14 mph87%30.42 "HgN/A
4:00 PM46 °FBroken clouds.10 mph87%30.42 "HgN/A
3:30 PM46 °FBroken clouds.13 mph87%30.42 "Hg6 mi
3:00 PM48 °FPassing clouds.13 mph82%30.39 "Hg4 mi
2:30 PM46 °FPartly sunny.10 mph93%30.42 "Hg5 mi
2:00 PM46 °FDrizzle. Broken clouds.10 mph93%30.42 "Hg2 mi
1:30 PM46 °FDrizzle. Broken clouds.13 mph93%30.42 "Hg5 mi
1:00 PM46 °FDrizzle. Broken clouds.15 mph93%30.42 "HgN/A
12:30 PM48 °FPartly sunny.10 mph87%30.42 "HgN/A
12:00 PM48 °FScattered clouds.12 mph87%30.42 "Hg5 mi
11:30 AM48 °FBroken clouds.13 mph87%30.42 "Hg5 mi
11:00 AM46 °FScattered clouds.10 mph87%30.42 "HgN/A
10:30 AM46 °FScattered clouds.9 mph87%30.42 "HgN/A
10:00 AM45 °FPartly sunny.8 mph93%30.42 "HgN/A
9:30 AM45 °FPartly sunny.7 mph93%30.39 "HgN/A
9:00 AM45 °FPartly sunny.9 mph93%30.39 "HgN/A
8:30 AM45 °FPartly cloudy.9 mph93%30.39 "Hg4 mi
8:00 AM45 °FPassing clouds.9 mph87%30.36 "HgN/A
7:30 AM45 °FPassing clouds.9 mph87%30.36 "HgN/A
7:00 AM46 °FPassing clouds.14 mph82%30.36 "HgN/A
6:30 AM45 °FPassing clouds.14 mph87%30.33 "HgN/A
6:00 AM46 °FPassing clouds.16 mph82%30.33 "HgN/A
5:30 AM45 °FPassing clouds.22 mph87%30.33 "HgN/A
5:00 AM46 °FPassing clouds.22 mph82%30.33 "HgN/A
4:30 AM46 °FPassing clouds.21 mph76%30.30 "HgN/A
4:00 AM46 °FPassing clouds.18 mph76%30.30 "HgN/A
3:30 AM46 °FPassing clouds.15 mph82%30.30 "HgN/A
3:00 AM46 °FPassing clouds.17 mph82%30.30 "HgN/A
2:30 AM45 °FPassing clouds.13 mph87%30.30 "HgN/A
2:00 AM45 °FPassing clouds.14 mph87%30.30 "HgN/A
1:30 AM45 °FPassing clouds.16 mph87%30.27 "HgN/A
1:00 AM45 °FPassing clouds.12 mph87%30.30 "HgN/A
12:30 AM45 °FPassing clouds.12 mph87%30.27 "HgN/A
12:00 AM45 °FSprinkles. Passing clouds.15 mph87%30.27 "HgN/A
11:30 PM
Dec 19
45 °FPassing clouds.15 mph81%30.27 "HgN/A
11:00 PM45 °FPassing clouds.15 mph81%30.27 "HgN/A
10:30 PM45 °FPartly cloudy.17 mph81%30.24 "HgN/A
10:00 PM45 °FPassing clouds.16 mph81%30.27 "HgN/A
Weather by CustomWeather, © 2014

See weather overviewHow to use our weather pages